Time,TemperatureF,DewpointF,PressureIn,WindDirection,WindDirectionDegrees,WindSpeedMPH,WindSpeedGustMPH,Humidity,HourlyPrecipIn,Conditions,Clouds,dailyrainin,SoftwareType,DateUTC
2013-05-22 00:00:00,57.8,52.7,29.61,West,277,0.0,0.0,83,0.00,,,0.00,VWS V14.01,2013-05-22 05:00:00,
2013-05-22 00:01:00,58.1,53.0,29.61,ESE,103,2.0,2.0,83,0.00,,OVC050,0.00,VWS V14.01,2013-05-22 05:01:00,
2013-05-22 00:06:00,58.2,52.7,29.61,ESE,102,1.0,3.0,82,0.00,,OVC050,0.00,VWS V14.01,2013-05-22 05:06:00,
2013-05-22 00:11:00,58.2,53.1,29.61,ESE,102,1.0,3.0,83,0.00,,OVC050,0.00,VWS V14.01,2013-05-22 05:11:00,
2013-05-22 00:16:00,58.1,53.3,29.61,ESE,102,2.0,3.0,84,0.00,,OVC050,0.00,VWS V14.01,2013-05-22 05:16:00,
2013-05-22 00:21:00,58.0,53.2,29.61,East,98,3.0,3.0,84,0.00,,OVC050,0.00,VWS V14.01,2013-05-22 05:21:00,
2013-05-22 00:26:00,58.0,52.9,29.60,East,98,1.0,3.0,83,0.00,,OVC050,0.00,VWS V14.01,2013-05-22 05:26:00,
2013-05-22 00:30:00,58.1,53.0,29.61,ESE,110,0.0,3.0,83,0.00,,,0.00,VWS V14.01,2013-05-22 05:30:00,
2013-05-22 00:31:00,58.0,53.2,29.60,ESE,102,2.0,2.0,84,0.00,,OVC050,0.00,VWS V14.01,2013-05-22 05:31:00,
2013-05-22 00:36:00,57.9,53.4,29.60,ESE,102,2.0,3.0,85,0.00,,OVC050,0.00,VWS V14.01,2013-05-22 05:36:00,
2013-05-22 00:41:00,57.8,53.0,29.60,ESE,103,1.0,3.0,84,0.00,,OVC050,0.00,VWS V14.01,2013-05-22 05:41:00,
2013-05-22 00:46:00,57.6,53.1,29.60,ESE,102,2.0,4.0,85,0.00,,OVC050,0.00,VWS V14.01,2013-05-22 05:46:00,
2013-05-22 00:51:00,57.6,53.1,29.60,East,96,1.0,4.0,85,0.00,,OVC050,0.00,VWS V14.01,2013-05-22 05:51:00,
2013-05-22 00:56:00,57.4,52.6,29.60,East,96,1.0,4.0,84,0.00,,OVC050,0.00,VWS V14.01,2013-05-22 05:56:00,
2013-05-22 01:00:00,58.1,53.0,29.61,East,96,2.0,3.0,83,0.00,,,0.00,VWS V14.01,2013-05-22 06:00:00,
2013-05-22 01:01:00,57.5,52.7,29.59,East,92,1.0,1.0,84,0.00,,OVC050,0.00,VWS V14.01,2013-05-22 06:01:00,
2013-05-22 01:06:00,57.4,52.6,29.59,East,91,2.0,3.0,84,0.00,,SCT075,0.00,VWS V14.01,2013-05-22 06:06:00,
2013-05-22 01:11:00,57.3,52.5,29.59,East,100,2.0,3.0,84,0.00,,SCT075,0.00,VWS V14.01,2013-05-22 06:11:00,
2013-05-22 01:16:00,57.2,52.7,29.59,ESE,104,3.0,4.0,85,0.00,,SCT075,0.00,VWS V14.01,2013-05-22 06:16:00,
2013-05-22 01:21:00,57.2,52.7,29.59,ESE,103,3.0,4.0,85,0.00,,SCT075,0.00,VWS V14.01,2013-05-22 06:21:00,
2013-05-22 01:26:00,57.3,52.5,29.59,ESE,112,2.0,4.0,84,0.00,,SCT075,0.00,VWS V14.01,2013-05-22 06:26:00,
2013-05-22 01:30:00,58.0,52.9,29.60,East,98,2.0,4.0,83,0.00,,,0.00,VWS V14.01,2013-05-22 06:30:00,
2013-05-22 01:31:00,57.3,52.5,29.58,East,84,2.0,2.0,84,0.00,,SCT075,0.00,VWS V14.01,2013-05-22 06:31:00,
2013-05-22 01:36:00,57.3,52.5,29.59,East,94,1.0,3.0,84,0.00,,SCT075,0.00,VWS V14.01,2013-05-22 06:36:00,
2013-05-22 01:41:00,57.3,52.5,29.59,ESE,106,2.0,4.0,84,0.00,,SCT075,0.00,VWS V14.01,2013-05-22 06:41:00,
2013-05-22 01:46:00,57.3,52.5,29.59,ESE,106,4.0,5.0,84,0.00,,SCT075,0.00,VWS V14.01,2013-05-22 06:46:00,
2013-05-22 01:51:00,57.4,52.3,29.59,East,92,3.0,5.0,83,0.00,,SCT075,0.00,VWS V14.01,2013-05-22 06:51:00,
2013-05-22 01:56:00,57.4,52.3,29.59,East,98,3.0,5.0,83,0.00,,SCT075,0.00,VWS V14.01,2013-05-22 06:56:00,
2013-05-22 02:00:00,57.5,52.7,29.59,East,98,1.0,4.0,84,0.00,,,0.00,VWS V14.01,2013-05-22 07:00:00,
2013-05-22 02:01:00,57.4,52.0,29.58,East,100,1.0,1.0,82,0.00,,BKN036,0.00,VWS V14.01,2013-05-22 07:01:00,
2013-05-22 02:06:00,57.4,52.3,29.59,ESE,105,1.0,3.0,83,0.00,,BKN036,0.00,VWS V14.01,2013-05-22 07:06:00,
2013-05-22 02:11:00,57.4,52.3,29.59,ESE,111,2.0,3.0,83,0.00,,BKN036,0.00,VWS V14.01,2013-05-22 07:11:00,
2013-05-22 02:16:00,57.2,52.4,29.59,ESE,105,1.0,3.0,84,0.00,,BKN036,0.00,VWS V14.01,2013-05-22 07:16:00,
2013-05-22 02:21:00,57.3,51.9,29.59,East,82,3.0,3.0,82,0.00,,BKN036,0.00,VWS V14.01,2013-05-22 07:21:00,
2013-05-22 02:26:00,57.5,51.7,29.59,ESE,109,1.0,3.0,81,0.00,,BKN036,0.00,VWS V14.01,2013-05-22 07:26:00,
2013-05-22 02:30:00,57.3,52.5,29.58,East,79,1.0,4.0,84,0.00,,,0.00,VWS V14.01,2013-05-22 07:30:00,
2013-05-22 02:31:00,57.4,51.6,29.59,East,100,1.0,1.0,81,0.00,,BKN036,0.00,VWS V14.01,2013-05-22 07:31:00,
2013-05-22 02:36:00,57.4,52.0,29.59,ESE,102,0.0,2.0,82,0.00,,BKN036,0.00,VWS V14.01,2013-05-22 07:36:00,
2013-05-22 02:41:00,57.2,52.1,29.60,SE,136,0.0,2.0,83,0.00,,BKN036,0.00,VWS V14.01,2013-05-22 07:41:00,
2013-05-22 02:46:00,56.7,51.9,29.60,SE,134,0.0,2.0,84,0.00,,BKN036,0.00,VWS V14.01,2013-05-22 07:46:00,
2013-05-22 02:51:00,56.5,52.0,29.60,SE,134,0.0,2.0,85,0.00,,BKN036,0.00,VWS V14.01,2013-05-22 07:51:00,
2013-05-22 02:56:00,56.2,51.8,29.60,SSE,150,0.0,2.0,85,0.00,,BKN036,0.00,VWS V14.01,2013-05-22 07:56:00,
2013-05-22 03:00:00,57.4,52.0,29.58,ESE,113,1.0,5.0,82,0.00,,,0.00,VWS V14.01,2013-05-22 08:00:00,
2013-05-22 03:01:00,56.1,52.0,29.60,SSW,200,3.0,3.0,86,0.00,,OVC036,0.00,VWS V14.01,2013-05-22 08:01:00,
2013-05-22 03:06:00,56.0,51.9,29.60,SSW,195,2.0,4.0,86,0.00,,OVC036,0.00,VWS V14.01,2013-05-22 08:06:00,
2013-05-22 03:11:00,56.2,52.1,29.60,South,170,1.0,5.0,86,0.00,,OVC036,0.00,VWS V14.01,2013-05-22 08:11:00,
2013-05-22 03:16:00,56.1,52.0,29.60,SSE,155,2.0,5.0,86,0.00,,OVC036,0.00,VWS V14.01,2013-05-22 08:16:00,
2013-05-22 03:21:00,56.1,52.3,29.60,SE,141,2.0,5.0,87,0.00,,OVC036,0.00,VWS V14.01,2013-05-22 08:21:00,
2013-05-22 03:26:00,56.1,52.6,29.60,SE,145,0.0,5.0,88,0.00,,OVC036,0.00,VWS V14.01,2013-05-22 08:26:00,
2013-05-22 03:30:00,57.4,51.6,29.60,East,100,1.0,3.0,81,0.00,,,0.00,VWS V14.01,2013-05-22 08:30:00,
2013-05-22 03:31:00,56.0,52.5,29.60,SE,142,2.0,2.0,88,0.00,,OVC036,0.00,VWS V14.01,2013-05-22 08:31:00,
2013-05-22 03:36:00,56.0,52.2,29.60,SSE,153,0.0,2.0,87,0.00,,OVC036,0.00,VWS V14.01,2013-05-22 08:36:00,
2013-05-22 03:41:00,56.0,52.5,29.60,SSE,153,0.0,2.0,88,0.00,,OVC036,0.00,VWS V14.01,2013-05-22 08:41:00,
2013-05-22 03:46:00,55.9,52.4,29.60,SSE,151,0.0,2.0,88,0.00,,OVC036,0.00,VWS V14.01,2013-05-22 08:46:00,
2013-05-22 03:51:00,55.9,52.4,29.60,SE,145,0.0,2.0,88,0.00,,OVC036,0.00,VWS V14.01,2013-05-22 08:51:00,
2013-05-22 03:56:00,55.9,52.4,29.60,SE,146,0.0,2.0,88,0.00,,OVC036,0.00,VWS V14.01,2013-05-22 08:56:00,
2013-05-22 04:00:00,56.1,52.0,29.60,SSW,193,0.0,6.0,86,0.00,,,0.00,VWS V14.01,2013-05-22 09:00:00,
2013-05-22 04:01:00,55.8,52.3,29.59,SE,143,0.0,0.0,88,0.00,,OVC036,0.00,VWS V14.01,2013-05-22 09:01:00,
2013-05-22 04:06:00,55.7,52.5,29.60,SE,145,0.0,0.0,89,0.00,,OVC080,0.00,VWS V14.01,2013-05-22 09:06:00,
2013-05-22 04:11:00,55.6,52.7,29.59,SE,145,0.0,0.0,90,0.00,,OVC080,0.00,VWS V14.01,2013-05-22 09:11:00,
2013-05-22 04:16:00,55.5,52.6,29.59,SE,145,0.0,0.0,90,0.00,,OVC080,0.00,VWS V14.01,2013-05-22 09:16:00,
2013-05-22 04:21:00,55.4,52.5,29.59,SE,143,0.0,0.0,90,0.00,,OVC080,0.00,VWS V14.01,2013-05-22 09:21:00,
2013-05-22 04:26:00,55.5,52.6,29.59,SE,145,0.0,0.0,90,0.00,,OVC080,0.00,VWS V14.01,2013-05-22 09:26:00,
2013-05-22 04:30:00,56.0,52.5,29.60,SSE,155,2.0,5.0,88,0.00,,,0.00,VWS V14.01,2013-05-22 09:30:00,
2013-05-22 04:31:00,55.6,52.4,29.59,SE,143,0.0,0.0,89,0.00,,OVC080,0.00,VWS V14.01,2013-05-22 09:31:00,
2013-05-22 04:36:00,55.7,52.5,29.59,SE,145,0.0,0.0,89,0.00,,OVC080,0.00,VWS V14.01,2013-05-22 09:36:00,
2013-05-22 04:41:00,55.7,52.5,29.59,SE,145,0.0,0.0,89,0.00,,OVC080,0.00,VWS V14.01,2013-05-22 09:41:00,
2013-05-22 04:46:00,55.8,53.2,29.59,SE,134,1.0,1.0,91,0.00,,OVC080,0.00,VWS V14.01,2013-05-22 09:46:00,
2013-05-22 04:51:00,55.7,52.8,29.59,ESE,118,0.0,1.0,90,0.00,,OVC080,0.00,VWS V14.01,2013-05-22 09:51:00,
2013-05-22 04:56:00,55.6,53.0,29.59,SE,128,1.0,2.0,91,0.00,,OVC080,0.00,VWS V14.01,2013-05-22 09:56:00,
2013-05-22 05:00:00,55.8,52.3,29.59,SE,143,0.0,2.0,88,0.00,,,0.00,VWS V14.01,2013-05-22 10:00:00,
2013-05-22 05:01:00,55.6,52.7,29.58,SE,128,1.0,1.0,90,0.00,,OVC075,0.00,VWS V14.01,2013-05-22 10:01:00,
2013-05-22 05:06:00,55.7,52.5,29.59,SE,136,1.0,2.0,89,0.00,,OVC075,0.00,VWS V14.01,2013-05-22 10:06:00,
2013-05-22 05:11:00,55.9,52.1,29.59,South,173,6.0,10.0,87,0.00,,OVC075,0.00,VWS V14.01,2013-05-22 10:11:00,
2013-05-22 05:16:00,55.9,52.1,29.58,SSW,201,5.0,10.0,87,0.00,,OVC075,0.00,VWS V14.01,2013-05-22 10:16:00,
2013-05-22 05:21:00,55.8,52.3,29.58,SSW,200,4.0,10.0,88,0.00,,OVC075,0.00,VWS V14.01,2013-05-22 10:21:00,
2013-05-22 05:26:00,55.7,52.5,29.59,South,184,4.0,10.0,89,0.00,,OVC075,0.00,VWS V14.01,2013-05-22 10:26:00,
2013-05-22 05:30:00,55.6,52.4,29.59,SE,146,0.0,0.0,89,0.00,,,0.00,VWS V14.01,2013-05-22 10:30:00,
2013-05-22 05:31:00,55.5,52.6,29.59,SW,214,3.0,3.0,90,0.00,,OVC075,0.00,VWS V14.01,2013-05-22 10:31:00,
2013-05-22 05:36:00,55.3,52.7,29.58,SSW,195,2.0,4.0,91,0.00,,OVC075,0.00,VWS V14.01,2013-05-22 10:36:00,
2013-05-22 05:41:00,55.1,52.5,29.59,SSW,211,2.0,4.0,91,0.00,,OVC075,0.00,VWS V14.01,2013-05-22 10:41:00,
2013-05-22 05:46:00,55.0,52.7,29.59,SW,224,0.0,4.0,92,0.00,,OVC075,0.00,VWS V14.01,2013-05-22 10:46:00,
2013-05-22 05:51:00,54.9,52.9,29.59,West,263,0.0,4.0,93,0.00,,OVC075,0.00,VWS V14.01,2013-05-22 10:51:00,
2013-05-22 05:56:00,54.7,53.0,29.59,SW,222,0.0,4.0,94,0.00,,OVC075,0.00,VWS V14.01,2013-05-22 10:56:00,
2013-05-22 06:00:00,55.6,52.7,29.58,ESE,114,1.0,2.0,90,0.00,,,0.00,VWS V14.01,2013-05-22 11:00:00,
2013-05-22 06:01:00,54.7,53.0,29.59,WSW,245,0.0,0.0,94,0.00,,OVC041,0.00,VWS V14.01,2013-05-22 11:01:00,
2013-05-22 06:06:00,54.7,53.0,29.59,WSW,245,0.0,1.0,94,0.00,,OVC041,0.00,VWS V14.01,2013-05-22 11:06:00,
2013-05-22 06:11:00,54.6,52.9,29.59,WSW,245,0.0,1.0,94,0.00,,OVC041,0.00,VWS V14.01,2013-05-22 11:11:00,
2013-05-22 06:16:00,54.7,53.0,29.59,WSW,243,0.0,1.0,94,0.00,,OVC041,0.00,VWS V14.01,2013-05-22 11:16:00,
2013-05-22 06:21:00,54.7,53.3,29.60,WSW,243,0.0,1.0,95,0.00,,OVC041,0.00,VWS V14.01,2013-05-22 11:21:00,
2013-05-22 06:26:00,54.7,53.3,29.59,WSW,243,0.0,1.0,95,0.00,,OVC028,0.00,VWS V14.01,2013-05-22 11:26:00,
2013-05-22 06:30:00,55.5,52.6,29.59,SSW,195,1.0,10.0,90,0.00,,,0.00,VWS V14.01,2013-05-22 11:30:00,
2013-05-22 06:31:00,54.7,53.3,29.59,WSW,243,0.0,0.0,95,0.00,,OVC028,0.00,VWS V14.01,2013-05-22 11:31:00,
2013-05-22 06:36:00,54.7,53.3,29.60,WSW,243,0.0,0.0,95,0.00,,OVC028,0.00,VWS V14.01,2013-05-22 11:36:00,
2013-05-22 06:41:00,54.7,53.3,29.60,WSW,244,0.0,0.0,95,0.00,,OVC028,0.00,VWS V14.01,2013-05-22 11:41:00,
2013-05-22 06:46:00,54.7,53.3,29.60,WSW,245,0.0,0.0,95,0.00,,OVC028,0.00,VWS V14.01,2013-05-22 11:46:00,
2013-05-22 06:51:00,54.8,53.4,29.59,NE,51,0.0,1.0,95,0.00,,-RA,0.00,VWS V14.01,2013-05-22 11:51:00,
2013-05-22 06:56:00,54.9,53.5,29.59,NE,51,0.0,1.0,95,0.00,,-RA,0.00,VWS V14.01,2013-05-22 11:56:00,
2013-05-22 07:00:00,54.7,53.0,29.59,WSW,245,1.0,4.0,94,0.00,,,0.00,VWS V14.01,2013-05-22 12:00:00,
2013-05-22 07:01:00,54.9,53.5,29.59,NE,51,0.0,0.0,95,0.00,,-RA,0.00,VWS V14.01,2013-05-22 12:01:00,
2013-05-22 07:06:00,54.9,53.5,29.59,NE,52,0.0,1.0,95,0.00,,-RA,0.00,VWS V14.01,2013-05-22 12:06:00,
2013-05-22 07:11:00,54.9,53.5,29.59,NE,52,0.0,1.0,95,0.00,,-RA,0.00,VWS V14.01,2013-05-22 12:11:00,
2013-05-22 07:16:00,54.9,53.5,29.59,NE,52,0.0,1.0,95,0.00,,,0.00,VWS V14.01,2013-05-22 12:16:00,
2013-05-22 07:21:00,54.9,53.5,29.59,NE,53,0.0,1.0,95,0.00,,,0.00,VWS V14.01,2013-05-22 12:21:00,
2013-05-22 07:26:00,55.0,53.6,29.59,NE,46,1.0,2.0,95,0.00,,,0.00,VWS V14.01,2013-05-22 12:26:00,
2013-05-22 07:30:00,54.7,53.3,29.59,WSW,243,0.0,1.0,95,0.00,,,0.00,VWS V14.01,2013-05-22 12:30:00,
2013-05-22 07:31:00,55.1,53.7,29.59,NE,46,0.0,0.0,95,0.00,,,0.00,VWS V14.01,2013-05-22 12:31:00,
2013-05-22 07:36:00,55.2,53.8,29.59,NE,51,0.0,4.0,95,0.00,,,0.00,VWS V14.01,2013-05-22 12:36:00,
2013-05-22 07:41:00,55.4,54.0,29.59,NE,53,0.0,4.0,95,0.00,,,0.00,VWS V14.01,2013-05-22 12:41:00,
2013-05-22 07:46:00,55.5,53.8,29.59,NNE,15,0.0,4.0,94,0.00,,,0.00,VWS V14.01,2013-05-22 12:46:00,
2013-05-22 07:51:00,55.5,53.8,29.59,NE,54,0.0,4.0,94,0.00,,,0.00,VWS V14.01,2013-05-22 12:51:00,
2013-05-22 07:56:00,55.6,53.9,29.59,NNE,30,0.0,4.0,94,0.00,,,0.00,VWS V14.01,2013-05-22 12:56:00,
2013-05-22 08:00:00,55.6,53.6,29.59,NNE,19,1.0,1.0,93,0.00,,,0.00,VWS V14.01,2013-05-22 13:00:00,
2013-05-22 08:05:00,55.7,54.0,29.59,NE,52,1.0,2.0,94,0.00,,,0.00,VWS V14.01,2013-05-22 13:05:00,
2013-05-22 08:10:00,55.9,53.9,29.59,NE,36,0.0,2.0,93,0.00,,,0.00,VWS V14.01,2013-05-22 13:10:00,
2013-05-22 08:15:00,56.1,54.1,29.59,NNE,25,0.0,3.0,93,0.00,,,0.00,VWS V14.01,2013-05-22 13:15:00,
2013-05-22 08:20:00,56.3,54.3,29.59,NE,49,0.0,4.0,93,0.00,,,0.00,VWS V14.01,2013-05-22 13:20:00,
2013-05-22 08:25:00,56.4,54.1,29.59,NNE,17,0.0,4.0,92,0.00,,,0.00,VWS V14.01,2013-05-22 13:25:00,
2013-05-22 08:30:00,56.4,53.8,29.59,NNE,29,0.0,4.0,91,0.00,,,0.00,VWS V14.01,2013-05-22 13:30:00,
2013-05-22 08:35:00,56.6,54.0,29.59,NE,46,1.0,2.0,91,0.00,,,0.00,VWS V14.01,2013-05-22 13:35:00,
2013-05-22 08:40:00,56.6,54.0,29.59,NNE,30,0.0,2.0,91,0.00,,,0.00,VWS V14.01,2013-05-22 13:40:00,
2013-05-22 08:45:00,56.7,53.8,29.59,North,11,0.0,4.0,90,0.00,,,0.00,VWS V14.01,2013-05-22 13:45:00,
2013-05-22 08:50:00,57.0,54.1,29.59,NE,56,0.0,4.0,90,0.00,,,0.00,VWS V14.01,2013-05-22 13:50:00,
2013-05-22 08:55:00,57.2,54.0,29.60,NNE,16,0.0,4.0,89,0.00,,,0.00,VWS V14.01,2013-05-22 13:55:00,
2013-05-22 09:00:00,57.4,53.9,29.60,NE,41,0.0,4.0,88,0.00,,,0.00,VWS V14.01,2013-05-22 14:00:00,
2013-05-22 09:05:00,57.7,54.5,29.60,NE,43,0.0,2.0,89,0.00,,OVC080,0.00,VWS V14.01,2013-05-22 14:05:00,
2013-05-22 09:10:00,58.0,54.5,29.60,NNE,29,0.0,4.0,88,0.00,,OVC080,0.00,VWS V14.01,2013-05-22 14:10:00,
2013-05-22 09:15:00,58.2,54.4,29.60,NE,41,0.0,4.0,87,0.00,,OVC080,0.00,VWS V14.01,2013-05-22 14:15:00,
2013-05-22 09:20:00,58.4,54.5,29.60,NE,51,0.0,4.0,87,0.00,,OVC080,0.00,VWS V14.01,2013-05-22 14:20:00,
2013-05-22 09:25:00,58.6,54.8,29.60,NE,36,0.0,4.0,87,0.00,,OVC080,0.00,VWS V14.01,2013-05-22 14:25:00,
2013-05-22 09:30:00,58.8,54.6,29.60,NE,36,0.0,4.0,86,0.00,,OVC080,0.00,VWS V14.01,2013-05-22 14:30:00,
2013-05-22 09:35:00,58.8,54.3,29.60,NNE,18,0.0,4.0,85,0.00,,OVC080,0.00,VWS V14.01,2013-05-22 14:35:00,
2013-05-22 09:40:00,58.9,54.7,29.61,NNW,337,0.0,4.0,86,0.00,,OVC080,0.00,VWS V14.01,2013-05-22 14:40:00,
2013-05-22 09:45:00,59.0,54.5,29.60,NNE,19,2.0,4.0,85,0.00,,OVC080,0.00,VWS V14.01,2013-05-22 14:45:00,
2013-05-22 09:50:00,59.0,54.5,29.61,NNE,25,0.0,4.0,85,0.00,,OVC080,0.00,VWS V14.01,2013-05-22 14:50:00,
2013-05-22 09:55:00,59.1,54.3,29.61,NE,51,1.0,4.0,84,0.00,,OVC080,0.00,VWS V14.01,2013-05-22 14:55:00,
2013-05-22 10:00:00,59.2,54.7,29.61,ENE,57,2.0,4.0,85,0.00,,OVC050,0.00,VWS V14.01,2013-05-22 15:00:00,
2013-05-22 10:05:00,59.3,53.8,29.61,NE,47,0.0,4.0,82,0.00,,OVC050,0.00,VWS V14.01,2013-05-22 15:05:00,
2013-05-22 10:10:00,59.5,54.3,29.61,NE,46,0.0,4.0,83,0.00,,OVC050,0.00,VWS V14.01,2013-05-22 15:10:00,
2013-05-22 10:15:00,59.6,54.4,29.61,NNE,27,2.0,4.0,83,0.00,,OVC050,0.00,VWS V14.01,2013-05-22 15:15:00,
2013-05-22 10:20:00,59.6,54.1,29.61,ENE,57,0.0,4.0,82,0.00,,OVC050,0.00,VWS V14.01,2013-05-22 15:20:00,
2013-05-22 10:25:00,59.7,54.5,29.61,NNW,329,0.0,4.0,83,0.00,,OVC050,0.00,VWS V14.01,2013-05-22 15:25:00,
2013-05-22 10:30:00,59.7,54.2,29.61,ENE,66,1.0,6.0,82,0.00,,OVC050,0.00,VWS V14.01,2013-05-22 15:30:00,
2013-05-22 10:35:00,59.8,54.3,29.61,North,4,0.0,2.0,82,0.00,,OVC050,0.00,VWS V14.01,2013-05-22 15:35:00,
2013-05-22 10:40:00,59.8,54.0,29.61,NNE,29,1.0,2.0,81,0.00,,OVC050,0.00,VWS V14.01,2013-05-22 15:40:00,
2013-05-22 10:45:00,59.7,53.9,29.61,North,358,3.0,7.0,81,0.00,,OVC050,0.00,VWS V14.01,2013-05-22 15:45:00,
2013-05-22 10:50:00,59.5,54.7,29.61,NNW,335,3.0,8.0,84,0.00,,OVC050,0.00,VWS V14.01,2013-05-22 15:50:00,
2013-05-22 10:55:00,59.2,55.0,29.62,NE,36,3.0,8.0,86,0.00,,OVC050,0.00,VWS V14.01,2013-05-22 15:55:00,
2013-05-22 11:00:00,58.9,55.0,29.62,North,356,4.0,8.0,87,0.00,,-RA,0.00,VWS V14.01,2013-05-22 16:00:00,
2013-05-22 11:05:00,58.8,55.0,29.62,NE,53,2.0,8.0,87,0.00,,-RA,0.00,VWS V14.01,2013-05-22 16:05:00,
2013-05-22 11:10:00,58.7,54.8,29.62,NNE,15,3.0,8.0,87,0.00,,OVC075,0.00,VWS V14.01,2013-05-22 16:10:00,
2013-05-22 11:15:00,58.9,55.4,29.62,NNE,16,3.0,8.0,88,0.00,,OVC075,0.00,VWS V14.01,2013-05-22 16:15:00,
2013-05-22 11:20:00,58.8,55.3,29.62,North,9,1.0,8.0,88,0.00,,OVC075,0.00,VWS V14.01,2013-05-22 16:20:00,
2013-05-22 11:25:00,58.9,55.0,29.62,NNW,346,2.0,8.0,87,0.00,,-RA,0.00,VWS V14.01,2013-05-22 16:25:00,
2013-05-22 11:30:00,59.3,55.8,29.62,North,360,2.0,8.0,88,0.00,,-RA,0.00,VWS V14.01,2013-05-22 16:30:00,
2013-05-22 11:35:00,59.6,55.4,29.62,NNE,19,1.0,4.0,86,0.00,,-RA,0.00,VWS V14.01,2013-05-22 16:35:00,
2013-05-22 11:40:00,59.3,55.1,29.63,North,350,2.0,7.0,86,0.00,,-RA,0.00,VWS V14.01,2013-05-22 16:40:00,
2013-05-22 11:45:00,59.3,55.4,29.63,ENE,69,7.0,7.0,87,0.00,,-RA,0.00,VWS V14.01,2013-05-22 16:45:00,
2013-05-22 11:50:00,59.4,55.5,29.63,NNW,340,2.0,8.0,87,0.00,,-RA,0.00,VWS V14.01,2013-05-22 16:50:00,
2013-05-22 11:55:00,59.7,55.5,29.63,North,6,2.0,8.0,86,0.00,,-RA,0.00,VWS V14.01,2013-05-22 16:55:00,
2013-05-22 12:00:00,59.5,55.3,29.63,NW,325,7.0,9.0,86,0.00,,-RA,0.00,VWS V14.01,2013-05-22 17:00:00,
2013-05-22 12:05:00,59.5,55.6,29.63,North,6,2.0,8.0,87,0.00,,OVC075,0.00,VWS V14.01,2013-05-22 17:05:00,
2013-05-22 12:10:00,59.6,55.7,29.63,North,4,1.0,8.0,87,0.00,,OVC075,0.00,VWS V14.01,2013-05-22 17:10:00,
2013-05-22 12:15:00,59.5,55.3,29.63,North,354,3.0,9.0,86,0.00,,OVC075,0.00,VWS V14.01,2013-05-22 17:15:00,
2013-05-22 12:20:00,59.6,55.7,29.63,NNE,27,3.0,9.0,87,0.00,,OVC075,0.00,VWS V14.01,2013-05-22 17:20:00,
2013-05-22 12:25:00,59.7,55.5,29.63,NNE,12,2.0,9.0,86,0.00,,OVC075,0.00,VWS V14.01,2013-05-22 17:25:00,
2013-05-22 12:30:00,59.5,55.6,29.63,North,356,8.0,10.0,87,0.00,,OVC075,0.00,VWS V14.01,2013-05-22 17:30:00,
2013-05-22 12:35:00,59.6,55.7,29.63,NW,325,3.0,9.0,87,0.00,,OVC075,0.00,VWS V14.01,2013-05-22 17:35:00,
2013-05-22 12:40:00,59.5,55.6,29.63,NNE,20,4.0,9.0,87,0.00,,OVC075,0.00,VWS V14.01,2013-05-22 17:40:00,
2013-05-22 12:45:00,59.2,55.3,29.63,NNW,330,5.0,12.0,87,0.00,,OVC075,0.00,VWS V14.01,2013-05-22 17:45:00,
2013-05-22 12:50:00,59.2,55.7,29.63,NE,49,4.0,12.0,88,0.00,,OVC075,0.00,VWS V14.01,2013-05-22 17:50:00,
2013-05-22 12:55:00,58.9,55.0,29.63,North,9,3.0,12.0,87,0.00,,OVC075,0.00,VWS V14.01,2013-05-22 17:55:00,
2013-05-22 13:00:00,58.4,54.5,29.64,North,359,4.0,12.0,87,0.00,,OVC075,0.00,VWS V14.01,2013-05-22 18:00:00,
2013-05-22 13:05:00,57.9,54.4,29.64,NNE,15,5.0,9.0,88,0.00,,OVC020,0.00,VWS V14.01,2013-05-22 18:05:00,
2013-05-22 13:10:00,57.6,54.4,29.64,NNE,13,4.0,9.0,89,0.00,,OVC020,0.00,VWS V14.01,2013-05-22 18:10:00,
2013-05-22 13:15:00,57.5,54.3,29.64,NNW,340,6.0,9.0,89,0.00,,OVC020,0.00,VWS V14.01,2013-05-22 18:15:00,
2013-05-22 13:20:00,57.6,54.7,29.64,North,352,3.0,9.0,90,0.00,,OVC020,0.00,VWS V14.01,2013-05-22 18:20:00,
2013-05-22 13:25:00,57.9,54.7,29.64,North,356,4.0,9.0,89,0.00,,OVC020,0.00,VWS V14.01,2013-05-22 18:25:00,
2013-05-22 13:30:00,57.9,54.7,29.64,ENE,57,3.0,9.0,89,0.00,,OVC020,0.00,VWS V14.01,2013-05-22 18:30:00,
2013-05-22 13:35:00,58.0,54.5,29.64,NW,317,3.0,8.0,88,0.00,,OVC020,0.00,VWS V14.01,2013-05-22 18:35:00,
2013-05-22 13:40:00,57.6,54.1,29.64,NNE,13,5.0,13.0,88,0.00,,OVC020,0.00,VWS V14.01,2013-05-22 18:40:00,
2013-05-22 13:45:00,57.5,54.6,29.64,North,9,4.0,13.0,90,0.00,,OVC020,0.00,VWS V14.01,2013-05-22 18:45:00,
2013-05-22 13:50:00,57.5,54.3,29.65,North,6,4.0,13.0,89,0.00,,OVC020,0.00,VWS V14.01,2013-05-22 18:50:00,
2013-05-22 13:55:00,57.2,53.7,29.65,North,9,4.0,13.0,88,0.00,,OVC020,0.00,VWS V14.01,2013-05-22 18:55:00,
2013-05-22 14:00:00,57.0,53.8,29.65,NNE,32,3.0,13.0,89,0.00,,-RA,0.00,VWS V14.01,2013-05-22 19:00:00,
2013-05-22 14:05:00,56.6,53.4,29.65,NNE,18,3.0,8.0,89,0.00,,-RA,0.00,VWS V14.01,2013-05-22 19:05:00,
2013-05-22 14:10:00,56.5,53.6,29.65,North,359,3.0,10.0,90,0.00,,-RA,0.00,VWS V14.01,2013-05-22 19:10:00,
2013-05-22 14:15:00,56.4,53.2,29.66,NNW,333,3.0,10.0,89,0.00,,-RA,0.00,VWS V14.01,2013-05-22 19:15:00,
2013-05-22 14:20:00,56.1,52.9,29.66,ENE,58,2.0,10.0,89,0.00,,-RA,0.00,VWS V14.01,2013-05-22 19:20:00,
2013-05-22 14:25:00,56.0,53.1,29.66,NNE,27,3.0,10.0,90,0.00,,-RA,0.00,VWS V14.01,2013-05-22 19:25:00,
2013-05-22 14:30:00,55.9,53.0,29.66,NE,46,3.0,11.0,90,0.00,,-RA,0.00,VWS V14.01,2013-05-22 19:30:00,
2013-05-22 14:35:00,55.8,52.6,29.67,NNW,337,3.0,9.0,89,0.00,,-RA,0.00,VWS V14.01,2013-05-22 19:35:00,
2013-05-22 14:40:00,55.7,52.8,29.67,NE,37,2.0,9.0,90,0.00,,-RA,0.00,VWS V14.01,2013-05-22 19:40:00,
2013-05-22 14:45:00,55.8,53.2,29.67,NNE,26,4.0,9.0,91,0.00,,-RA,0.00,VWS V14.01,2013-05-22 19:45:00,
2013-05-22 14:50:00,55.7,52.5,29.67,North,349,3.0,11.0,89,0.00,,-RA,0.00,VWS V14.01,2013-05-22 19:50:00,
2013-05-22 14:55:00,55.5,52.3,29.67,NE,51,4.0,11.0,89,0.00,,-RA,0.00,VWS V14.01,2013-05-22 19:55:00,
2013-05-22 15:00:00,55.4,52.5,29.67,NW,325,3.0,11.0,90,0.00,,-RA,0.00,VWS V14.01,2013-05-22 20:00:00,
2013-05-22 15:05:00,55.2,52.3,29.67,NNW,340,5.0,9.0,90,0.00,,-RA,0.00,VWS V14.01,2013-05-22 20:05:00,
2013-05-22 15:10:00,55.0,52.4,29.67,NNE,22,5.0,9.0,91,0.00,,-RA,0.00,VWS V14.01,2013-05-22 20:10:00,
2013-05-22 15:15:00,54.8,52.5,29.67,NNE,26,4.0,9.0,92,0.00,,-RA,0.00,VWS V14.01,2013-05-22 20:15:00,
2013-05-22 15:20:00,54.7,52.4,29.67,ENE,62,4.0,9.0,92,0.01,,-RA,0.01,VWS V14.01,2013-05-22 20:20:00,
2013-05-22 15:25:00,54.6,52.3,29.68,NW,316,1.0,9.0,92,0.01,,-RA,0.01,VWS V14.01,2013-05-22 20:25:00,
2013-05-22 15:30:00,54.6,52.6,29.68,North,11,1.0,9.0,93,0.01,,-RA,0.01,VWS V14.01,2013-05-22 20:30:00,
2013-05-22 15:35:00,54.5,52.5,29.68,NNE,19,4.0,9.0,93,0.01,,-RA,0.01,VWS V14.01,2013-05-22 20:35:00,
2013-05-22 15:40:00,54.4,52.4,29.68,NE,36,4.0,9.0,93,0.01,,-RA,0.01,VWS V14.01,2013-05-22 20:40:00,
2013-05-22 15:45:00,54.4,52.7,29.68,NW,316,1.0,9.0,94,0.01,,-RA,0.01,VWS V14.01,2013-05-22 20:45:00,
2013-05-22 15:50:00,54.3,52.3,29.68,North,349,3.0,9.0,93,0.01,,-RA,0.01,VWS V14.01,2013-05-22 20:50:00,
2013-05-22 15:55:00,54.3,52.6,29.68,NNE,18,5.0,9.0,94,0.02,,-RA,0.02,VWS V14.01,2013-05-22 20:55:00,
2013-05-22 16:00:00,54.2,52.5,29.68,North,11,4.0,9.0,94,0.02,,-RA,0.02,VWS V14.01,2013-05-22 21:00:00,
2013-05-22 16:05:00,54.2,52.5,29.68,NNE,21,4.0,9.0,94,0.02,,-RA,0.02,VWS V14.01,2013-05-22 21:05:00,
2013-05-22 16:10:00,54.1,52.4,29.69,NNE,29,3.0,9.0,94,0.03,,-RA,0.03,VWS V14.01,2013-05-22 21:10:00,
2013-05-22 16:15:00,54.1,52.4,29.69,NNE,16,2.0,10.0,94,0.03,,-RA,0.03,VWS V14.01,2013-05-22 21:15:00,
2013-05-22 16:20:00,54.1,52.4,29.69,North,7,0.0,10.0,94,0.04,,-RA,0.04,VWS V14.01,2013-05-22 21:20:00,
2013-05-22 16:25:00,54.1,52.4,29.69,NNE,15,5.0,10.0,94,0.04,,-RA,0.04,VWS V14.01,2013-05-22 21:25:00,
2013-05-22 16:30:00,54.2,52.8,29.69,NNE,15,3.0,10.0,95,0.05,,-RA,0.05,VWS V14.01,2013-05-22 21:30:00,
2013-05-22 16:35:00,54.2,52.5,29.69,North,6,3.0,6.0,94,0.04,,-RA,0.05,VWS V14.01,2013-05-22 21:35:00,
2013-05-22 16:40:00,54.3,52.9,29.69,North,356,4.0,7.0,95,0.05,,-RA,0.06,VWS V14.01,2013-05-22 21:40:00,
2013-05-22 16:45:00,54.2,52.5,29.69,North,1,3.0,9.0,94,0.05,,-RA,0.06,VWS V14.01,2013-05-22 21:45:00,
2013-05-22 16:50:00,54.3,52.9,29.69,NNW,344,8.0,9.0,95,0.05,,-RA,0.06,VWS V14.01,2013-05-22 21:50:00,
2013-05-22 16:55:00,54.4,53.0,29.69,NNE,16,2.0,9.0,95,0.06,,-RA,0.07,VWS V14.01,2013-05-22 21:55:00,
2013-05-22 17:00:00,54.5,53.1,29.70,North,352,3.0,9.0,95,0.06,,-RA,0.07,VWS V14.01,2013-05-22 22:00:00,
2013-05-22 17:05:00,54.4,52.7,29.70,NW,325,5.0,10.0,94,0.06,,-RA,0.08,VWS V14.01,2013-05-22 22:05:00,
2013-05-22 17:10:00,54.4,52.7,29.70,North,356,3.0,11.0,94,0.06,,-RA,0.08,VWS V14.01,2013-05-22 22:10:00,
2013-05-22 17:15:00,54.4,52.7,29.70,North,358,3.0,11.0,94,0.06,,-RA,0.08,VWS V14.01,2013-05-22 22:15:00,
2013-05-22 17:20:00,54.4,52.7,29.70,NE,53,2.0,11.0,94,0.06,,-RA,0.08,VWS V14.01,2013-05-22 22:20:00,
2013-05-22 17:25:00,54.4,52.7,29.71,NNE,13,1.0,11.0,94,0.06,,-RA,0.08,VWS V14.01,2013-05-22 22:25:00,
2013-05-22 17:30:00,54.2,52.5,29.71,North,352,3.0,11.0,94,0.06,,-RA,0.08,VWS V14.01,2013-05-22 22:30:00,
2013-05-22 17:35:00,54.2,52.5,29.71,North,6,6.0,8.0,94,0.03,,-RA,0.08,VWS V14.01,2013-05-22 22:35:00,
2013-05-22 17:40:00,54.1,52.1,29.71,NNE,18,2.0,8.0,93,0.03,,-RA,0.08,VWS V14.01,2013-05-22 22:40:00,
2013-05-22 17:45:00,54.1,52.1,29.72,North,8,7.0,9.0,93,0.03,,-RA,0.08,VWS V14.01,2013-05-22 22:45:00,
2013-05-22 17:50:00,54.1,52.1,29.72,NNE,18,3.0,10.0,93,0.03,,-RA,0.08,VWS V14.01,2013-05-22 22:50:00,
2013-05-22 17:55:00,54.1,52.1,29.72,North,356,0.0,10.0,93,0.03,,-RA,0.08,VWS V14.01,2013-05-22 22:55:00,
2013-05-22 18:00:00,54.1,52.4,29.72,NNE,20,1.0,10.0,94,0.03,,-RA,0.08,VWS V14.01,2013-05-22 23:00:00,
2013-05-22 18:05:00,54.0,52.0,29.72,North,357,3.0,11.0,93,0.01,,-RA,0.08,VWS V14.01,2013-05-22 23:05:00,
2013-05-22 18:10:00,54.1,52.1,29.72,NE,48,3.0,11.0,93,0.01,,-RA,0.08,VWS V14.01,2013-05-22 23:10:00,
2013-05-22 18:15:00,54.1,51.8,29.72,North,350,2.0,13.0,92,0.01,,-RA,0.08,VWS V14.01,2013-05-22 23:15:00,
2013-05-22 18:20:00,54.0,52.0,29.73,North,9,6.0,13.0,93,0.01,,-RA,0.08,VWS V14.01,2013-05-22 23:20:00,
2013-05-22 18:25:00,53.9,51.9,29.73,NNW,329,5.0,13.0,93,0.01,,-RA,0.08,VWS V14.01,2013-05-22 23:25:00,
2013-05-22 18:30:00,53.9,51.9,29.73,NNW,338,2.0,13.0,93,0.01,,-RA,0.08,VWS V14.01,2013-05-22 23:30:00,
2013-05-22 18:35:00,53.9,51.9,29.73,NNE,13,3.0,7.0,93,0.00,,-RA,0.08,VWS V14.01,2013-05-22 23:35:00,
2013-05-22 18:40:00,53.9,51.9,29.73,NNW,347,1.0,9.0,93,0.00,,-RA,0.08,VWS V14.01,2013-05-22 23:40:00,
2013-05-22 18:45:00,53.8,51.8,29.73,NNE,23,2.0,9.0,93,0.00,,-RA,0.08,VWS V14.01,2013-05-22 23:45:00,
2013-05-22 18:50:00,53.8,52.1,29.74,NNE,20,4.0,9.0,94,0.00,,-RA,0.08,VWS V14.01,2013-05-22 23:50:00,
2013-05-22 18:55:00,53.7,52.0,29.74,NNE,13,0.0,9.0,94,0.01,,-RA,0.09,VWS V14.01,2013-05-22 23:55:00,
2013-05-22 19:00:00,53.6,51.9,29.74,NNW,335,3.0,9.0,94,0.01,,-RA,0.09,VWS V14.01,2013-05-23 00:00:00,
2013-05-22 19:05:00,53.7,52.0,29.74,NNE,21,2.0,5.0,94,0.01,,-RA,0.09,VWS V14.01,2013-05-23 00:05:00,
2013-05-22 19:10:00,53.6,51.9,29.74,NNE,19,4.0,7.0,94,0.01,,-RA,0.09,VWS V14.01,2013-05-23 00:10:00,
2013-05-22 19:15:00,53.5,51.8,29.75,NNE,25,4.0,11.0,94,0.01,,-RA,0.09,VWS V14.01,2013-05-23 00:15:00,
2013-05-22 19:20:00,53.4,51.7,29.75,North,4,0.0,11.0,94,0.01,,-RA,0.09,VWS V14.01,2013-05-23 00:20:00,
2013-05-22 19:25:00,53.4,51.7,29.75,North,349,6.0,11.0,94,0.01,,-RA,0.09,VWS V14.01,2013-05-23 00:25:00,
2013-05-22 19:30:00,53.4,51.7,29.75,NE,42,2.0,11.0,94,0.01,,-RA,0.09,VWS V14.01,2013-05-23 00:30:00,
2013-05-22 19:35:00,53.3,51.6,29.75,North,5,2.0,6.0,94,0.01,,-RA,0.09,VWS V14.01,2013-05-23 00:35:00,
2013-05-22 19:40:00,53.2,51.8,29.75,NNE,26,2.0,6.0,95,0.01,,-RA,0.09,VWS V14.01,2013-05-23 00:40:00,
2013-05-22 19:45:00,53.1,51.7,29.75,North,8,2.0,14.0,95,0.02,,-RA,0.10,VWS V14.01,2013-05-23 00:45:00,
2013-05-22 19:50:00,53.0,51.6,29.75,NNE,27,4.0,14.0,95,0.02,,-RA,0.10,VWS V14.01,2013-05-23 00:50:00,
2013-05-22 19:55:00,52.9,51.5,29.76,NNW,347,3.0,14.0,95,0.02,,-RA,0.10,VWS V14.01,2013-05-23 00:55:00,
2013-05-22 20:00:00,52.8,51.4,29.76,NNE,30,4.0,14.0,95,0.02,,-RA,0.10,VWS V14.01,2013-05-23 01:00:00,
2013-05-22 20:05:00,52.8,51.7,29.76,NNE,29,2.0,8.0,96,0.01,,-RA,0.10,VWS V14.01,2013-05-23 01:05:00,
2013-05-22 20:10:00,52.8,51.7,29.76,NNE,15,1.0,8.0,96,0.01,,-RA,0.10,VWS V14.01,2013-05-23 01:10:00,
2013-05-22 20:15:00,52.7,51.3,29.76,NNE,12,2.0,8.0,95,0.01,,-RA,0.10,VWS V14.01,2013-05-23 01:15:00,
2013-05-22 20:20:00,52.7,51.3,29.76,NNE,32,3.0,11.0,95,0.01,,-RA,0.10,VWS V14.01,2013-05-23 01:20:00,
2013-05-22 20:25:00,52.6,51.2,29.77,North,11,7.0,11.0,95,0.01,,-RA,0.10,VWS V14.01,2013-05-23 01:25:00,
2013-05-22 20:30:00,52.6,51.2,29.77,NNE,13,3.0,13.0,95,0.01,,-RA,0.10,VWS V14.01,2013-05-23 01:30:00,
2013-05-22 20:35:00,52.6,51.2,29.77,NNW,335,7.0,9.0,95,0.01,,-RA,0.10,VWS V14.01,2013-05-23 01:35:00,
2013-05-22 20:40:00,52.6,51.5,29.77,NNE,16,4.0,9.0,96,0.01,,-RA,0.10,VWS V14.01,2013-05-23 01:40:00,
2013-05-22 20:45:00,52.6,51.5,29.78,NE,46,1.0,9.0,96,0.01,,-RA,0.10,VWS V14.01,2013-05-23 01:45:00,
2013-05-22 20:50:00,52.4,51.3,29.78,NE,46,1.0,11.0,96,0.02,,-RA,0.11,VWS V14.01,2013-05-23 01:50:00,
2013-05-22 20:55:00,52.4,51.3,29.78,NNE,32,0.0,11.0,96,0.02,,-RA,0.11,VWS V14.01,2013-05-23 01:55:00,
2013-05-22 21:00:00,52.4,51.3,29.78,NE,44,3.0,11.0,96,0.02,,-RA,0.11,VWS V14.01,2013-05-23 02:00:00,
2013-05-22 21:05:00,52.3,51.2,29.78,North,11,2.0,8.0,96,0.01,,-RA,0.11,VWS V14.01,2013-05-23 02:05:00,
2013-05-22 21:10:00,52.3,51.5,29.78,North,9,5.0,8.0,97,0.02,,-RA,0.12,VWS V14.01,2013-05-23 02:10:00,
2013-05-22 21:15:00,52.3,51.2,29.79,NE,38,1.0,9.0,96,0.02,,-RA,0.12,VWS V14.01,2013-05-23 02:15:00,
2013-05-22 21:20:00,52.3,51.2,29.79,North,357,3.0,11.0,96,0.02,,-RA,0.12,VWS V14.01,2013-05-23 02:20:00,
2013-05-22 21:25:00,52.3,51.5,29.79,NNW,347,3.0,11.0,97,0.02,,-RA,0.12,VWS V14.01,2013-05-23 02:25:00,
2013-05-22 21:30:00,52.2,51.4,29.80,NNW,346,9.0,11.0,97,0.03,,-RA,0.13,VWS V14.01,2013-05-23 02:30:00,
2013-05-22 21:35:00,52.2,51.4,29.80,NNW,345,3.0,7.0,97,0.03,,-RA,0.13,VWS V14.01,2013-05-23 02:35:00,
2013-05-22 21:40:00,52.2,51.4,29.80,NE,36,0.0,8.0,97,0.03,,-RA,0.13,VWS V14.01,2013-05-23 02:40:00,
2013-05-22 21:45:00,52.2,51.4,29.80,North,11,1.0,8.0,97,0.04,,-RA,0.14,VWS V14.01,2013-05-23 02:45:00,
2013-05-22 21:50:00,52.1,51.3,29.81,North,1,2.0,8.0,97,0.04,,-RA,0.14,VWS V14.01,2013-05-23 02:50:00,
2013-05-22 21:55:00,52.1,51.3,29.81,NNE,30,1.0,8.0,97,0.05,,-RA,0.15,VWS V14.01,2013-05-23 02:55:00,
2013-05-22 22:00:00,52.1,51.3,29.81,NE,40,0.0,11.0,97,0.05,,-RA,0.15,VWS V14.01,2013-05-23 03:00:00,
2013-05-22 22:05:00,52.1,51.3,29.81,North,352,8.0,10.0,97,0.04,,-RA,0.15,VWS V14.01,2013-05-23 03:05:00,
2013-05-22 22:10:00,52.0,51.2,29.82,NNE,27,1.0,10.0,97,0.05,,-RA,0.16,VWS V14.01,2013-05-23 03:10:00,
2013-05-22 22:15:00,51.9,50.8,29.82,NNE,19,4.0,10.0,96,0.05,,-RA,0.16,VWS V14.01,2013-05-23 03:15:00,
2013-05-22 22:20:00,51.8,50.7,29.82,NNE,16,3.0,10.0,96,0.05,,-RA,0.16,VWS V14.01,2013-05-23 03:20:00,
2013-05-22 22:25:00,51.9,50.8,29.82,NNW,333,2.0,10.0,96,0.05,,-RA,0.16,VWS V14.01,2013-05-23 03:25:00,
2013-05-22 22:30:00,51.8,50.7,29.82,NNE,28,4.0,10.0,96,0.05,,-RA,0.16,VWS V14.01,2013-05-23 03:30:00,
2013-05-22 22:35:00,51.8,50.7,29.83,North,9,4.0,8.0,96,0.03,,-RA,0.16,VWS V14.01,2013-05-23 03:35:00,
2013-05-22 22:40:00,51.8,50.7,29.83,NNW,346,6.0,11.0,96,0.03,,-RA,0.16,VWS V14.01,2013-05-23 03:40:00,
2013-05-22 22:45:00,51.8,50.7,29.83,NNW,347,8.0,11.0,96,0.03,,-RA,0.16,VWS V14.01,2013-05-23 03:45:00,
2013-05-22 22:50:00,51.8,50.4,29.83,NE,42,2.0,11.0,95,0.03,,-RA,0.16,VWS V14.01,2013-05-23 03:50:00,
2013-05-22 22:55:00,51.7,50.3,29.83,North,351,3.0,11.0,95,0.03,,-RA,0.16,VWS V14.01,2013-05-23 03:55:00,
2013-05-22 23:00:00,51.6,50.2,29.83,NNW,335,5.0,11.0,95,0.03,,-RA,0.16,VWS V14.01,2013-05-23 04:00:00,
2013-05-22 23:01:00,51.6,50.2,29.83,NNE,16,3.0,3.0,95,0.01,,-RA,0.16,VWS V14.01,2013-05-23 04:01:00,
2013-05-22 23:06:00,51.6,50.2,29.83,NNE,32,1.0,8.0,95,0.01,,-RA,0.16,VWS V14.01,2013-05-23 04:06:00,
2013-05-22 23:11:00,51.5,50.1,29.83,NNE,18,2.0,10.0,95,0.01,,-RA,0.16,VWS V14.01,2013-05-23 04:11:00,
2013-05-22 23:16:00,51.5,50.4,29.84,North,360,6.0,10.0,96,0.01,,-RA,0.16,VWS V14.01,2013-05-23 04:16:00,
2013-05-22 23:21:00,51.4,50.0,29.84,NE,46,1.0,10.0,95,0.01,,-RA,0.16,VWS V14.01,2013-05-23 04:21:00,
2013-05-22 23:26:00,51.4,50.0,29.84,NNE,25,2.0,10.0,95,0.01,,-RA,0.16,VWS V14.01,2013-05-23 04:26:00,
2013-05-22 23:30:00,51.9,50.8,29.82,North,9,3.0,10.0,96,0.05,,,0.16,VWS V14.01,2013-05-23 04:30:00,
2013-05-22 23:31:00,51.4,50.0,29.84,NE,44,3.0,6.0,95,0.00,,-RA,0.16,VWS V14.01,2013-05-23 04:31:00,
2013-05-22 23:36:00,51.4,50.0,29.84,NNW,330,3.0,8.0,95,0.00,,-RA,0.16,VWS V14.01,2013-05-23 04:36:00,
2013-05-22 23:41:00,51.4,50.0,29.85,NNE,19,0.0,8.0,95,0.00,,-RA,0.16,VWS V14.01,2013-05-23 04:41:00,
2013-05-22 23:46:00,51.4,50.0,29.85,NNE,27,1.0,8.0,95,0.00,,-RA,0.16,VWS V14.01,2013-05-23 04:46:00,
2013-05-22 23:51:00,51.4,50.0,29.85,North,4,4.0,8.0,95,0.00,,-RA,0.16,VWS V14.01,2013-05-23 04:51:00,
2013-05-22 23:56:00,51.4,50.0,29.85,NNW,329,2.0,8.0,95,0.00,,OVC009,0.16,VWS V14.01,2013-05-23 04:56:00,